Location: Capvern
(43.1036°N, 0.3160°E)
Time: 22:18:10
(UTC+00:00)

Cosmos 1908 - Pass Details

Date: 16 October 2021
Orbit: 509 x 528 km, 82.5° (Epoch: 04 December)

Event Time Altitude Azimuth Distance (km) Brightness Sun altitude
Rises 17:39:10 0° 158° (SSE) 2,654 6.7 -5.3°
Reaches altitude 10° 17:41:34 10° 145° (SE) 1,768 5.6 -5.8°
Maximum altitude 17:44:46 25° 90° (E) 1,100 4.3 -6.3°
Drops below altitude 10° 17:47:58 10° 34° (NE) 1,775 5.5 -6.9°
Sets 17:50:22 0° 21° (NNE) 2,666 6.5 -7.4°
